When you browse on this site, cookies collect data to enhance your experience and personalize the content and advertising you see.
Visit our Privacy Policy to learn more. By continuing to use the site, you agree to this use of cookies and data.
  • En España
  • Lista de países
  • Para 7 días
  • Temperatura del agua
  • Mapa Satelital
  • El tiempo en el mapa
  • Informadores
  • user-avatar
    Iniciar sesión

    Tiempo cada hora Kuntaur

    Hoy, 18 Enero, Viernes

    Tiempo Temperatura Precipitaciones Viento Presión Humedad
    00:00 +26°C° 0 mm 4 mps 758 mmHg 7%
    01:00 +26°C° 0 mm 4 mps 758 mmHg 8%
    02:00 +25°C° 0 mm 4 mps 758 mmHg 8%
    03:00 +23°C° 0 mm 4 mps 758 mmHg 9%
    04:00 +22°C° 0 mm 3 mps 758 mmHg 9%
    05:00 +22°C° 0 mm 3 mps 758 mmHg 9%
    06:00 +23°C° 0 mm 4 mps 759 mmHg 9%
    07:00 +23°C° 0 mm 4 mps 759 mmHg 9%
    08:00 +25°C° 0 mm 5 mps 759 mmHg 8%
    09:00 +28°C° 0 mm 5 mps 759 mmHg 7%
    10:00 +30°C° 0 mm 5 mps 759 mmHg 6%
    11:00 +34°C° 0 mm 5 mps 760 mmHg 5%
    12:00 +35°C° 0 mm 5 mps 759 mmHg 5%
    13:00 +36°C° 0 mm 5 mps 758 mmHg 5%
    14:00 +39°C° 0 mm 5 mps 758 mmHg 5%
    15:00 +37°C° 0 mm 5 mps 758 mmHg 5%
    16:00 +36°C° 0 mm 5 mps 757 mmHg 5%
    17:00 +35°C° 0 mm 5 mps 757 mmHg 6%
    18:00 +33°C° 0 mm 5 mps 758 mmHg 8%
    19:00 +30°C° 0 mm 5 mps 758 mmHg 10%
    20:00 +28°C° 0 mm 5 mps 759 mmHg 11%
    21:00 +27°C° 0 mm 5 mps 759 mmHg 13%
    22:00 +27°C° 0 mm 5 mps 760 mmHg 15%
    23:00 +26°C° 0 mm 5 mps 760 mmHg 17%

    Mañana, 19 Enero, Sábado

    Tiempo Temperatura Precipitaciones Viento Presión Humedad
    00:00 +25°C° 0 mm 5 mps 760 mmHg 19%
    01:00 +23°C° 0 mm 5 mps 760 mmHg 20%
    02:00 +23°C° 0 mm 5 mps 760 mmHg 22%
    03:00 +22°C° 0 mm 5 mps 760 mmHg 23%
    04:00 +21°C° 0 mm 5 mps 760 mmHg 23%
    05:00 +21°C° 0 mm 5 mps 760 mmHg 24%
    06:00 +21°C° 0 mm 5 mps 760 mmHg 24%
    07:00 +22°C° 0 mm 6 mps 761 mmHg 24%
    08:00 +22°C° 0 mm 6 mps 761 mmHg 23%
    09:00 +26°C° 0 mm 6 mps 761 mmHg 21%
    10:00 +28°C° 0 mm 6 mps 761 mmHg 18%
    11:00 +30°C° 0 mm 6 mps 761 mmHg 15%
    12:00 +32°C° 0 mm 6 mps 760 mmHg 13%
    13:00 +34°C° 0 mm 5 mps 759 mmHg 11%
    14:00 +35°C° 0 mm 5 mps 758 mmHg 10%
    15:00 +35°C° 0 mm 5 mps 758 mmHg 10%
    16:00 +35°C° 0 mm 4 mps 758 mmHg 10%
    17:00 +34°C° 0 mm 4 mps 758 mmHg 9%
    18:00 +32°C° 0 mm 4 mps 758 mmHg 11%
    19:00 +29°C° 0 mm 3 mps 759 mmHg 12%
    20:00 +27°C° 0 mm 3 mps 760 mmHg 13%
    21:00 +26°C° 0 mm 3 mps 760 mmHg 13%
    22:00 +26°C° 0 mm 3 mps 760 mmHg 13%
    23:00 +25°C° 0 mm 4 mps 760 mmHg 14%

    Pasado mañana, 20 Enero, Domingo

    Tiempo Temperatura Precipitaciones Viento Presión Humedad
    00:00 +23°C° 0 mm 4 mps 760 mmHg 14%
    01:00 +23°C° 0 mm 4 mps 760 mmHg 14%
    02:00 +22°C° 0 mm 4 mps 760 mmHg 14%
    03:00 +22°C° 0 mm 4 mps 760 mmHg 15%
    04:00 +21°C° 0 mm 4 mps 760 mmHg 15%
    05:00 +20°C° 0 mm 3 mps 760 mmHg 15%
    06:00 +21°C° 0 mm 4 mps 760 mmHg 15%
    07:00 +22°C° 0 mm 4 mps 761 mmHg 14%
    08:00 +23°C° 0 mm 5 mps 761 mmHg 13%
    09:00 +26°C° 0 mm 5 mps 761 mmHg 12%
    10:00 +29°C° 0 mm 5 mps 761 mmHg 10%
    11:00 +33°C° 0 mm 5 mps 760 mmHg 8%
    12:00 +34°C° 0 mm 4 mps 759 mmHg 8%
    13:00 +36°C° 0 mm 4 mps 758 mmHg 7%
    14:00 +37°C° 0 mm 3 mps 757 mmHg 7%
    15:00 +37°C° 0 mm 3 mps 757 mmHg 7%
    16:00 +36°C° 0 mm 3 mps 757 mmHg 7%
    17:00 +36°C° 0 mm 3 mps 757 mmHg 7%
    18:00 +34°C° 0 mm 3 mps 758 mmHg 8%
    19:00 +31°C° 0 mm 3 mps 759 mmHg 9%
    20:00 +28°C° 0 mm 3 mps 759 mmHg 10%
    21:00 +27°C° 0 mm 3 mps 760 mmHg 10%
    22:00 +27°C° 0 mm 3 mps 760 mmHg 11%
    23:00 +26°C° 0 mm 4 mps 760 mmHg 11%

    21 Enero, Lunes

    Tiempo Temperatura Precipitaciones Viento Presión Humedad
    00:00 +25°C° 0 mm 3 mps 760 mmHg 11%
    01:00 +24°C° 0 mm 3 mps 759 mmHg 10%
    02:00 +24°C° 0 mm 3 mps 759 mmHg 10%
    03:00 +22°C° 0 mm 3 mps 759 mmHg 10%
    04:00 +21°C° 0 mm 3 mps 759 mmHg 9%
    05:00 +21°C° 0 mm 3 mps 759 mmHg 9%
    06:00 +21°C° 0 mm 3 mps 760 mmHg 8%
    07:00 +22°C° 0 mm 4 mps 760 mmHg 7%
    08:00 +23°C° 0 mm 4 mps 761 mmHg 6%
    09:00 +27°C° 0 mm 4 mps 761 mmHg 5%
    10:00 +30°C° 0 mm 4 mps 760 mmHg 5%
    11:00 +33°C° 0 mm 4 mps 760 mmHg 4%
    12:00 +34°C° 0 mm 4 mps 759 mmHg 4%
    13:00 +36°C° 0 mm 3 mps 758 mmHg 4%
    14:00 +37°C° 0 mm 3 mps 757 mmHg 4%
    15:00 +37°C° 0 mm 3 mps 757 mmHg 4%
    16:00 +36°C° 0 mm 3 mps 757 mmHg 4%
    17:00 +36°C° 0 mm 3 mps 757 mmHg 5%
    18:00 +34°C° 0 mm 3 mps 758 mmHg 5%
    19:00 +30°C° 0 mm 3 mps 759 mmHg 6%
    20:00 +28°C° 0 mm 3 mps 759 mmHg 6%
    21:00 +27°C° 0 mm 3 mps 760 mmHg 6%
    22:00 +26°C° 0 mm 4 mps 760 mmHg 6%
    23:00 +25°C° 0 mm 4 mps 760 mmHg 5%

    22 Enero, Martes

    Tiempo Temperatura Precipitaciones Viento Presión Humedad
    00:00 +25°C° 0 mm 4 mps 760 mmHg 5%
    01:00 +23°C° 0 mm 4 mps 759 mmHg 6%
    02:00 +22°C° 0 mm 4 mps 759 mmHg 6%
    03:00 +22°C° 0 mm 4 mps 759 mmHg 6%
    04:00 +21°C° 0 mm 4 mps 759 mmHg 7%
    05:00 +20°C° 0 mm 3 mps 759 mmHg 7%
    06:00 +21°C° 0 mm 4 mps 760 mmHg 7%
    07:00 +22°C° 0 mm 4 mps 760 mmHg 7%
    08:00 +22°C° 0 mm 4 mps 761 mmHg 7%
    09:00 +26°C° 0 mm 5 mps 761 mmHg 6%
    10:00 +29°C° 0 mm 5 mps 760 mmHg 5%
    11:00 +33°C° 0 mm 5 mps 760 mmHg 4%
    12:00 +34°C° 0 mm 5 mps 759 mmHg 3%
    13:00 +35°C° 0 mm 5 mps 758 mmHg 3%
    14:00 +36°C° 0 mm 4 mps 757 mmHg 3%
    15:00 +36°C° 0 mm 4 mps 757 mmHg 3%
    16:00 +35°C° 0 mm 4 mps 757 mmHg 3%
    17:00 +35°C° 0 mm 4 mps 757 mmHg 3%
    18:00 +33°C° 0 mm 3 mps 758 mmHg 4%
    19:00 +29°C° 0 mm 3 mps 758 mmHg 5%
    20:00 +27°C° 0 mm 3 mps 759 mmHg 5%
    21:00 +26°C° 0 mm 3 mps 759 mmHg 8%
    22:00 +26°C° 0 mm 4 mps 759 mmHg 10%
    23:00 +25°C° 0 mm 4 mps 759 mmHg 13%

    23 Enero, Miércoles

    Tiempo Temperatura Precipitaciones Viento Presión Humedad
    00:00 +25°C° 0 mm 4 mps 759 mmHg 16%
    01:00 +23°C° 0 mm 4 mps 759 mmHg 20%
    02:00 +23°C° 0 mm 4 mps 758 mmHg 23%
    03:00 +23°C° 0 mm 4 mps 758 mmHg 24%
    04:00 +22°C° 0 mm 4 mps 759 mmHg 26%
    05:00 +22°C° 0 mm 4 mps 759 mmHg 27%
    06:00 +22°C° 0 mm 4 mps 759 mmHg 26%
    07:00 +23°C° 0 mm 4 mps 760 mmHg 26%
    08:00 +23°C° 0 mm 5 mps 760 mmHg 25%
    09:00 +27°C° 0 mm 5 mps 760 mmHg 22%
    10:00 +29°C° 0 mm 5 mps 760 mmHg 19%
    11:00 +32°C° 0 mm 5 mps 760 mmHg 16%
    12:00 +33°C° 0 mm 4 mps 759 mmHg 14%
    13:00 +34°C° 0 mm 4 mps 758 mmHg 12%
    14:00 +36°C° 0 mm 3 mps 757 mmHg 10%
    15:00 +35°C° 0 mm 3 mps 757 mmHg 10%
    16:00 +35°C° 0 mm 3 mps 757 mmHg 10%
    17:00 +35°C° 0 mm 3 mps 757 mmHg 9%
    18:00 +33°C° 0 mm 3 mps 757 mmHg 11%
    19:00 +30°C° 0 mm 3 mps 757 mmHg 12%
    20:00 +29°C° 0 mm 4 mps 758 mmHg 14%
    21:00 +28°C° 0 mm 4 mps 758 mmHg 15%
    22:00 +27°C° 0 mm 4 mps 758 mmHg 15%
    23:00 +26°C° 0 mm 3 mps 758 mmHg 16%
    Mostrar más